User: anonymous   Login
Location: Ostrava
(49.8330°N, 18.2830°E)
Time: 10:44:48
(UTC+02:00)
Language:

Cosmos 1766 - Orbit

View from above orbital plane
View from above orbital plane
View from above satellite
View from above satellite

Ground track
Ground track

The orbit data is extracted from the following two-line orbital elements,

1 16881U 86055A   17142.85855411 +.00000288 +00000-0 +15781-4 0  9994
2 16881 082.5118 048.4670 0015947 184.4238 175.6853 15.10107246677615
Epoch (UTC): 22 May 2017 20:36:19
Eccentricity: 0.0015947
inclination: 82.5118°
perigee height: 525 km
apogee height: 547 km
right ascension of ascending node: 48.4670°
argument of perigee: 184.4238°
revolutions per day: 15.10107246
mean anomaly at epoch: 175.6853°
orbit number at epoch: 67761

The dashed part of the orbit path shows where the satellite is in the earth's shadow,  

DLR